TimeMST,TemperatureF,Dew PointF,Humidity,Sea Level PressureIn,VisibilityMPH,Wind Direction,Wind SpeedMPH,Gust SpeedMPH,PrecipitationIn,Events,Conditions,WindDirDegrees,DateUTC
12:56 AM,30.9,18.0,59,29.91,10.0,WSW,27.6,32.2,N/A,,Scattered Clouds,250,2013-02-25 07:56:00
1:56 AM,30.0,18.0,61,29.89,10.0,WSW,26.5,31.1,N/A,,Clear,250,2013-02-25 08:56:00
2:56 AM,30.9,18.0,59,29.88,10.0,West,18.4,26.5,N/A,,Clear,260,2013-02-25 09:56:00
3:56 AM,32.0,19.0,59,29.84,10.0,West,24.2,33.4,N/A,,Clear,260,2013-02-25 10:56:00
4:56 AM,30.9,19.0,61,29.83,10.0,WSW,21.9,28.8,N/A,,Clear,250,2013-02-25 11:56:00
5:56 AM,32.0,19.0,59,29.83,10.0,WSW,25.3,31.1,N/A,,Clear,250,2013-02-25 12:56:00
6:56 AM,33.1,19.0,56,29.81,10.0,WSW,31.1,38.0,N/A,,Clear,240,2013-02-25 13:56:00
7:56 AM,33.1,19.0,56,29.80,10.0,WSW,21.9,32.2,N/A,,Clear,240,2013-02-25 14:56:00
8:56 AM,34.0,19.9,56,29.79,10.0,WSW,19.6,27.6,N/A,,Clear,240,2013-02-25 15:56:00
9:56 AM,36.0,19.9,52,29.77,10.0,WSW,24.2,32.2,N/A,,Mostly Cloudy,250,2013-02-25 16:56:00
10:56 AM,37.0,19.9,50,29.75,10.0,SW,13.8,-,N/A,,Overcast,230,2013-02-25 17:56:00
11:56 AM,37.0,19.9,50,29.74,10.0,SW,19.6,27.6,N/A,,Mostly Cloudy,230,2013-02-25 18:56:00
12:56 PM,37.0,19.9,50,29.74,10.0,WSW,21.9,28.8,N/A,,Mostly Cloudy,250,2013-02-25 19:56:00
1:56 PM,36.0,19.9,52,29.74,10.0,WSW,23.0,33.4,N/A,,Mostly Cloudy,250,2013-02-25 20:56:00
2:56 PM,36.0,21.0,55,29.75,10.0,West,20.7,28.8,N/A,,Partly Cloudy,260,2013-02-25 21:56:00
3:56 PM,37.0,19.9,50,29.75,10.0,WSW,25.3,31.1,N/A,,Partly Cloudy,250,2013-02-25 22:56:00
4:56 PM,35.1,21.0,57,29.78,10.0,WSW,17.3,27.6,N/A,,Clear,250,2013-02-25 23:56:00
5:56 PM,35.1,19.0,52,29.77,10.0,West,25.3,-,N/A,,Clear,260,2013-02-26 00:56:00
6:56 PM,32.0,21.0,64,29.80,10.0,WSW,24.2,29.9,N/A,,Clear,250,2013-02-26 01:56:00
7:56 PM,30.0,21.9,72,29.82,10.0,WSW,18.4,28.8,N/A,,Clear,250,2013-02-26 02:56:00
8:56 PM,30.0,19.9,66,29.83,10.0,WSW,21.9,28.8,N/A,,Mostly Cloudy,250,2013-02-26 03:56:00
9:56 PM,28.9,21.0,72,29.85,10.0,West,15.0,-,N/A,,Mostly Cloudy,280,2013-02-26 04:56:00
10:56 PM,26.1,19.9,78,29.88,10.0,West,10.4,-,N/A,,Scattered Clouds,280,2013-02-26 05:56:00
11:56 PM,27.0,19.9,75,29.90,10.0,NW,10.4,-,N/A,,Overcast,320,2013-02-26 06:56:00